2025-007A

Last updated on Tue Jan 14 2025 00:02:05 GMT+0000 (Coordinated Universal Time)

1 62575U 25007A 25013.46080513 -.00000207 00000+0 00000+0 0 9995 2 62575 54.9841 126.8643 0010373 263.7335 198.2865 14.73923468 52
UTC large
Height (km)
Speed (km/s)
/
Latitude / Longitude
Inclination (degrees)
Orbital Period (minutes)
Azimuth
Elevation
Range (km)
Doppler Factor

Next 0 passes for location: London (51.5072 / 0.1276)

Sorry there are no passes over London.